Burnet, TX

6:50 AM CDT on June 25, 2017 (GMT -0500)
Burnet Municipal-Craddock

Weather History for KBMQ - September, 2014

Change the Weather History Date:

Wednesday, September 10, 2014

  Actual Average Record
Temperature  
Mean Temperature 85 °F -  
Max Temperature 97 °F 87 °F 98 °F (2000)
Min Temperature 73 °F 68 °F 61 °F (2012)
Cooling Degree Days 20    
Growing Degree Days 35 (Base 50)    
Moisture  
Dew Point 67 °F    
Average Humidity 57    
Maximum Humidity 87    
Minimum Humidity 33    
Precipitation  
Precipitation 0.00 in - - ()
Sea Level Pressure  
Sea Level Pressure 29.82 in    
Wind  
Wind Speed 9 mph (South)    
Max Wind Speed 13 mph    
Max Gust Speed 22 mph    
Visibility 10 miles    
Events      
Averages and records for this station are not official NWS values.
T = Trace of Precipitation, MM = Missing Value Source: NWS Daily Summary

Daily Weather History Graph

Daily Weather History Graph

Search for Another Location

Airport or City:

Trip Planner

Search our weather history database for the weather conditions in past years. The results will help you decide how hot, cold, wet, or windy it might be!

Date:

Astronomy

Sep. 10, 2014 Rise Set
Actual Time 7:14 AM CDT 7:44 PM CDT
Civil Twilight 6:50 AM CDT 8:09 PM CDT
Nautical Twilight 6:21 AM CDT 8:37 PM CDT
Astronomical Twilight 5:52 AM CDT 9:06 PM CDT
Moon 8:55 PM CDT (9/10) 8:54 AM CDT (9/10)
Length of Visible Light 13h 18m
Length of Day
12h 30m
Waning Gibbous, 96% of the Moon is Illuminated
Sep 10
Waning Gibbous
Sep 15
Last Quarter
Sep 24
New
Oct 1
First Quarter
Oct 8
Full

Hourly Weather History & Observations

Time (CDT) Temp. Heat Index Dew Point Humidity Pressure Visibility Wind Dir Wind Speed Gust Speed Precip Events Conditions
12:53 AM 80.1 °F 82.7 °F 68.0 °F 67% 29.85 in 10.0 mi South 10.4 mph 17.3 mph N/A   Clear
1:53 AM 79.0 °F - 68.0 °F 69% 29.84 in 10.0 mi South 8.1 mph - N/A   Clear
2:53 AM 78.1 °F - 68.0 °F 71% 29.84 in 10.0 mi South 10.4 mph - N/A   Clear
3:53 AM 77.0 °F - 69.1 °F 76% 29.83 in 10.0 mi South 10.4 mph 16.1 mph N/A   Clear
4:53 AM 75.9 °F - 69.1 °F 79% 29.83 in 10.0 mi South 9.2 mph - N/A   Clear
5:53 AM 75.0 °F - 70.0 °F 84% 29.84 in 10.0 mi South 5.8 mph - N/A   Clear
6:53 AM 73.9 °F - 70.0 °F 87% 29.84 in 10.0 mi South 6.9 mph - N/A   Clear
7:53 AM 75.0 °F - 70.0 °F 84% 29.86 in 10.0 mi Variable 5.8 mph - N/A   Clear
8:53 AM 78.1 °F - 70.0 °F 76% 29.86 in 10.0 mi South 8.1 mph 18.4 mph N/A   Clear
9:53 AM 81.0 °F 84.1 °F 69.1 °F 67% 29.87 in 10.0 mi South 12.7 mph 20.7 mph N/A   Partly Cloudy
10:53 AM 84.9 °F 88.2 °F 68.0 °F 57% 29.87 in 10.0 mi SSW 11.5 mph 21.9 mph N/A   Clear
11:53 AM 88.0 °F 91.4 °F 68.0 °F 51% 29.86 in 10.0 mi South 11.5 mph 20.7 mph N/A   Clear
12:53 PM 90.0 °F 92.4 °F 66.0 °F 45% 29.84 in 10.0 mi SSW 12.7 mph 21.9 mph N/A   Clear
1:53 PM 93.0 °F 95.9 °F 66.0 °F 41% 29.83 in 10.0 mi South 11.5 mph 21.9 mph N/A   Clear
2:53 PM 95.0 °F 97.4 °F 64.9 °F 37% 29.80 in 10.0 mi South 12.7 mph 19.6 mph N/A   Clear
3:53 PM 96.1 °F 98.8 °F 64.9 °F 36% 29.78 in 10.0 mi South 10.4 mph 20.7 mph N/A   Clear
4:53 PM 97.0 °F 99.9 °F 64.9 °F 35% 29.77 in 10.0 mi Variable 4.6 mph - N/A   Clear
5:53 PM 96.1 °F 97.3 °F 63.0 °F 33% 29.76 in 10.0 mi South 8.1 mph 16.1 mph N/A   Clear
6:53 PM 93.9 °F 95.6 °F 64.0 °F 37% 29.77 in 10.0 mi SSW 9.2 mph - N/A   Clear
7:53 PM 91.9 °F 92.9 °F 63.0 °F 38% 29.78 in 10.0 mi South 5.8 mph - N/A   Clear
8:53 PM 88.0 °F 89.3 °F 64.0 °F 45% 29.79 in 10.0 mi SE 5.8 mph - N/A   Clear
10:53 PM 86.0 °F 87.6 °F 64.9 °F 49% 29.82 in 10.0 mi SSE 5.8 mph - N/A   Clear
11:53 PM 84.0 °F 86.5 °F 66.9 °F 56% 29.83 in 10.0 mi SSE 8.1 mph - N/A   Clear